Location: Irazein
(42.8860°N, 0.9660°E)
Time: 16:57:15
(UTC+00:00)

Daily predictions for brighter satellites

Satellite Brightness Start Highest point End
(mag) Time Altitude Azimuth Time Altitude Azimuth Time Altitude Azimuth
Cosmos 2360 Rocket 2.7 17:32:20 10° S 17:37:34 41° ESE 17:42:50 10° NE
SMAP 3.8 17:36:18 10° S 17:40:53 61° W 17:45:31 10° NNW
Cosmos 1892 Rocket 4.4 17:39:16 10° SSE 17:43:05 29° E 17:46:53 10° NNE
Cosmos 1461 3.0 17:41:18 10° SSW 17:45:30 78° ESE 17:49:58 10° NE
Cosmos 676 Rocket 4.0 17:41:23 10° S 17:46:38 71° ESE 17:51:54 10° NNE
ARGOS 4.3 17:42:57 10° S 17:48:06 49° W 17:53:20 10° NNW
Cosmos 44 Rocket 4.3 17:45:50 10° SSE 17:49:41 26° ESE 17:53:36 10° ENE
Cosmos 1340 4.0 17:48:11 10° NNE 17:50:51 19° ENE 17:53:31 10° ESE
Cosmos 2322 Rocket 2.2 17:45:30 10° SSW 17:51:05 79° ESE 17:56:43 10° NNE
COSMO-SKYMED 1 2.7 17:47:16 10° NNE 17:51:33 54° E 17:55:48 10° S
Cosmos 2333 Rocket 2.8 17:47:44 10° S 17:52:49 36° ESE 17:57:57 10° NE
BlueWalker 3 3.9 17:50:58 10° NW 17:53:40 18° N 17:56:22 10° NE
CZ-4C R/B 3.5 17:51:10 10° NNE 17:54:45 43° E 17:58:10 10° S
Cosmos 1633 2.8 17:54:24 10° SSE 17:57:32 39° E 18:00:41 10° NNE
CZ-4 R/B 2.9 17:58:12 10° ESE 18:00:52 17° ENE 18:03:29 10° NNE
Cosmos 1726 Rocket 3.6 17:58:41 10° N 18:02:56 54° E 18:07:09 10° SSE
SL-08 ROCKET BODY 4.4 17:57:22 10° N 18:03:16 89° W 18:09:06 10° S
Cosmos 1606 4.4 18:01:32 10° NE 18:03:29 13° ENE 18:03:57 13° ENE
Atlas Centaur 2 4.3 17:57:08 10° SW 18:03:30 28° SSE 18:10:19 10° ESE
In-Cosmos 22 Rocket 4.3 17:59:37 10° S 18:05:22 69° E 18:11:11 10° NNE
SL-16 R/B 2.9 18:01:38 10° SW 18:07:11 55° WNW 18:12:47 10° NNE
COSMOS 2428 4.0 18:04:03 10° SE 18:07:58 20° E 18:11:03 13° ENE
Cosmos 1408 4.5 18:06:46 10° SW 18:09:49 30° WNW 18:12:55 10° NNW
SL-4 R/B 3.3 18:07:55 10° NW 18:10:44 22° N 18:12:47 14° NE
RESURS DK-1 2.4 18:07:08 10° NNW 18:11:11 55° ENE 18:15:12 10° SE
Cosmos 2333 4.4 18:06:38 10° S 18:12:00 49° ESE 18:17:26 10° NE
H-2A R/B 4.3 18:11:46 10° SW 18:12:45 10° SW 18:13:34 10° SSW
Genesis I 3.2 18:09:41 10° SSW 18:13:38 88° NW 18:17:37 10° NE
Cosmos 1244 Rocket 4.5 18:09:18 10° N 18:15:39 74° E 18:21:54 10° SSE
BREEZE M DEB (TANK) 3.2 18:15:23 10° WNW 18:19:57 53° SW 18:22:22 10° SE
SKYMED 3 4.4 18:18:10 10° NNE 18:22:19 81° E 18:26:28 10° S
Okean O Rocket 2.4 18:21:51 10° SE 18:25:39 29° ENE 18:29:29 10° N
Lacrosse 5 3.0 18:23:48 10° WSW 18:28:34 39° NNW 18:33:04 12° NE
Cosmos 1745 Rocket 4.2 18:22:50 10° N 18:28:49 46° ENE 18:34:41 10° SSE
Cosmos 468 Rocket 4.4 18:26:27 10° NNW 18:31:33 64° WSW 18:36:36 10° S
MOS 1-B 4.4 18:25:59 10° SSE 18:31:38 58° ENE 18:37:20 10° N
Cosmos 2322 4.1 18:27:07 10° S 18:32:27 42° ESE 18:37:02 14° NE
PAYLOAD B 4.1 18:29:31 10° SSE 18:35:01 80° ENE 18:40:33 10° NNW
Okean 1-7 Rocket 4.2 18:31:34 10° SSE 18:35:31 34° E 18:39:08 12° NNE
USA 215 3.6 18:34:05 10° SE 18:40:35 68° SW 18:47:08 10° NW
YAOGAN 1 2.4 18:39:35 10° SSE 18:43:53 80° ENE 18:48:13 10° N
Cosmos 2058 Rocket 3.0 18:41:32 10° N 18:45:58 90° S 18:50:24 10° S
Cosmos 1869 3.4 18:42:38 10° NNW 18:46:32 74° W 18:50:28 10° S
Cosmos 1709 Rocket 4.3 18:41:15 10° N 18:46:59 40° ENE 18:52:40 10° SE
Meteor 1-27 4.3 18:42:55 10° NNW 18:48:42 81° W 18:54:22 10° S
Cosmos 1553 Rocket 4.1 18:44:15 10° SSW 18:50:18 76° W 18:56:30 10° N
Cosmos 1814 Rocket 4.3 18:47:16 10° N 18:52:24 44° ENE 18:54:29 30° ESE
PSLV R/B 3.9 18:49:49 10° S 18:53:27 67° WSW 18:57:10 10° NNW
Cosmos 540 Rocket 4.3 18:48:29 10° NNW 18:53:28 51° WSW 18:58:23 10° S
Cosmos 1417 Rocket 4.4 18:47:33 10° S 18:53:49 84° E 19:00:03 10° N
ATLAS 2AS CENTAUR R/B 3.9 18:47:29 10° NW 18:53:54 42° WSW 18:59:59 10° S
Cosmos 1850 Rocket 4.1 18:51:28 10° SSW 18:56:39 73° WNW 19:01:50 10° NNE
Cosmos 1844 Rocket 3.8 18:52:57 10° NW 18:58:14 44° WSW 19:03:28 10° S
Cosmos 841 Rocket 3.6 18:54:47 10° NNW 19:00:03 77° WSW 19:05:17 10° SSE
Cosmos 883 Rocket 4.5 18:59:25 10° S 19:05:32 60° E 19:11:45 10° NNE
Cosmos 1741 Rocket 4.4 19:00:33 10° SSW 19:05:49 65° WNW 19:11:09 10° NNE
USA 81 3.9 19:03:00 10° S 19:08:14 72° E 19:13:31 10° N
CZ-4B R/B 3.3 19:03:28 10° S 19:08:48 76° WSW 19:14:16 10° NNW
Lacrosse 5 rocket 1.6 19:10:36 10° NW 19:14:08 54° SW 19:14:37 49° SSW
Cosmos 2219 Rocket 2.5 19:14:25 10° SW 19:19:57 66° WNW 19:24:23 17° NNE
Haruka 4.4 19:18:31 10° SW 19:20:28 16° S 19:20:28 16° S
Cosmos 2360 Rocket 3.8 19:16:39 10° WSW 19:21:38 31° NW 19:26:40 10° N
S3M 4.3 19:20:21 10° SSW 19:26:42 68° W 19:33:04 10° N
Cosmos 2237 Rocket 4.2 19:25:03 10° SSE 19:25:48 14° SSE 19:25:48 14° SSE
Cosmos 1570 Rocket 4.4 19:24:55 10° NNW 19:29:08 48° NNE 19:29:08 48° NNE
Cosmos 44 Rocket 4.4 19:26:34 10° WSW 19:30:58 40° NW 19:32:55 27° N
BlueWalker 3 4.0 19:29:48 10° NW 19:31:36 21° NNW 19:31:36 21° NNW
CZ-4 R/B 2.6 19:31:30 10° S 19:35:25 42° W 19:39:18 10° NNW
Cosmos 968 Rocket 3.4 19:30:23 10° SSW 19:35:35 86° WNW 19:36:19 67° N
Cosmos 2278 Rocket 3.0 19:30:15 10° NNW 19:34:05 36° NNE 19:34:05 36° NNE
Cosmos 2333 Rocket 3.6 19:31:54 10° WSW 19:37:03 35° NW 19:42:16 10° N
BREEZE-M DEB (TANK) 3.3 19:26:28 10° WSW 19:38:18 64° NNW 19:38:56 58° NNE
Cosmos 1606 3.9 19:35:32 10° NNW 19:38:52 41° W 19:38:52 41° W
BREEZE-M DEB (TANK) 4.4 19:13:52 10° WNW 19:46:14 84° NNE 19:49:08 52° ESE
CSL-04 Debris 4.1 19:48:17 81° WSW 19:48:20 81° WSW 19:53:46 10° NNW
NOSS 0 Rocket 4.1 19:43:09 10° SSW 19:48:06 57° S 19:48:06 57° S
Cosmos 2315 Rocket 4.2 19:44:11 10° SSW 19:50:29 73° W 19:56:53 10° N
SL-4 R/B 4.2 19:46:56 10° NW 19:48:06 19° NW 19:48:06 19° NW
COSMOS 2428 3.1 19:46:04 10° SW 19:51:39 62° WNW 19:53:08 46° N
Atlas Centaur 2 3.9 19:45:01 10° WSW 19:52:12 34° S 19:53:34 32° SSE
CSL-04 Rocket 4.0 19:53:48 59° NNW 19:53:48 59° NNW 19:58:11 10° NNW
Okean O Rocket 3.6 19:58:13 10° SSW 20:01:56 27° W 20:05:41 10° NW
Cosmos 1943 Rocket 4.3 20:01:08 10° N 20:02:17 15° N 20:02:17 15° N
Lacrosse 5 4.1 20:09:22 10° NW 20:12:17 18° NNW 20:12:17 18° NNW
